Terminal Aerodrome Forecast
Issued by NWS

Current Version | Previous Version | Text Only | Print | Product List | Glossary Off
Versions: 1 2 3 4 5 6 7 8 9 10 11 12 13 14 15 16 17

000
FTUS41 KPBZ 250520
TAFHLG
TAF
KHLG 250520Z 2506/2606 36005KT P6SM SCT150
     FM251000 07005KT P6SM BKN080
     FM252100 09005KT 5SM -SHRA OVC030
     FM260300 VRB05KT P6SM -SHRA OVC050=

USA.gov is the U.S. government's official web portal to all federal, state and local government web resources and services.